Location: Arrien
(42.8963°N, 1.0429°E)
Time: 09:40:01
(UTC+00:00)

IRS-P3 - Pass Details

Date: 11 December 2025
Orbit: 810 x 815 km, 99.0° (Epoch: 21 January)

Event Time Altitude Azimuth Distance (km) Brightness Sun altitude
Rises 17:39:51 0° 159° (SSE) 3,324 7.3 -13.8°
Reaches altitude 10° 17:42:11 10° 158° (SSE) 2,396 6.5 -14.2°
Maximum altitude 17:47:28 77° 73° (ENE) 838 4.0 -15.1°
Drops below altitude 10° 17:52:48 10° 349° (NNW) 2,409 6.5 -16.1°
Sets 17:55:09 0° 348° (NNW) 3,344 7.3 -16.5°
